Met observations

Date (UTC) Wind direction m/s kts. Vis. * Weather * Cloud * Temperature (°C) Dew point (°C) Air pressure (Hp)
24-03 08:00 13 26 VIS 10 km BKN 2500ft 6.4 2.2 1019.0
24-03 07:00 11 22 VIS 10 km FEW 2000ft SCT 3200ft BKN 5800ft 6.2 1.9 1018.3
24-03 06:00 10 20 VIS 10 km FEW 2000ft SCT 3200ft BKN 5800ft 6.2 3.0 1017.6
24-03 05:00 12 23 VIS 10 km FEW 2000ft SCT 3200ft BKN 5800ft 6.2 2.6 1017.3
24-03 04:00 9 17 VIS 10 km FEW 2000ft SCT 3200ft BKN 5800ft 6.4 3.2 1016.6
24-03 03:00 11 22 VIS 10 km FEW 2000ft SCT 3200ft BKN 5800ft 6.6 2.7 1016.7
24-03 00:00 7 13 VIS 10 km FEW 2000ft SCT 3200ft BKN 5800ft 6.5 6.0 1016.7
23-03 23:00 8 16 VIS 10 km FEW 2000ft SCT 3200ft BKN 5800ft 6.0 5.4 1017.3
23-03 22:00 8 15 VIS 10 km FEW 2000ft SCT 3200ft BKN 5800ft 5.9 4.9 1017.5
23-03 21:00 11 22 VIS 10 km FEW 2000ft SCT 3200ft BKN 5800ft 5.6 4.4 1018.3
23-03 20:00 9 18 VIS 10 km FEW 2000ft SCT 3200ft BKN 5800ft 5.6 4.6 1018.5
23-03 19:00 10 19 VIS 10 km FEW 2000ft SCT 3200ft BKN 5800ft 5.6 3.5 1018.8
23-03 18:00 10 19 VIS 10 km FEW 2000ft SCT 3200ft BKN 5800ft 5.5 3.1 1019.0
23-03 17:00 8 16 VIS 10 km FEW 2000ft SCT 3200ft BKN 5800ft 5.3 2.9 1019.6
23-03 16:00 4 08 VIS 10 km FEW 2000ft SCT 3200ft BKN 5800ft 5.6 1.6 1020.0
23-03 15:00 5 10 VIS 10 km FEW 2000ft SCT 3200ft BKN 5800ft 4.8 2.2 1020.8
23-03 14:50 5 10 VIS 10 km FEW 2000ft SCT 3200ft BKN 5800ft 4.4 2.0 1021.0
23-03 14:00 8 15 VIS 10 km FEW 2000ft SCT 3200ft BKN 5800ft 5.4 0.5 1021.4
23-03 13:50 4 08 VIS 10 km FEW 2000ft SCT 3200ft BKN 5800ft 5.8 -0.1 1021.4
23-03 13:00 7 13 VIS 10 km SCT 2000ft BKN 3200ft BKN 5800ft 5.3 1.4 1021.9
23-03 12:00 5 09 VIS 10 km SCT 2000ft BKN 3200ft BKN 5800ft 5.1 0.6 1022.2
23-03 11:00 6 11 VIS 50 km BKN 4800ft 4.9 -0.8 1022.3
23-03 10:00 5 10 VIS 50 km SCT 1800ft BKN 4800ft 4.5 -2.1 1022.3

Met data is updated every half hour and is for information only.
* Visibility, weather and cloud values are updated during the airport’s service hours only.
Flight planning documentation is available on opmet.dmi.dk.
For meteorological abbreviations, click here